When you browse on this site, cookies collect data to enhance your experience and personalize the content and advertising you see.
Visit our Privacy Policy to learn more. By continuing to use the site, you agree to this use of cookies and data.
  • In Netherlands
  • List of Countries
  • For 7 days
  • Water Temperature
  • Satellite Maps
  • Weather Map
  • Weather Widgets
  • user-avatar
    Login

    Hourly Weather Chetyrehyarskiy

    Today, 22 May, Wednesday

    Time Temperature Precipitation Wind Pressure Humidity
    00:00 +17°C° 0 mm 5 mps 761 mmHg 54%
    01:00 +16°C° 0 mm 5 mps 761 mmHg 55%
    02:00 +16°C° 0 mm 5 mps 761 mmHg 56%
    03:00 +14°C° 0 mm 3 mps 760 mmHg 67%
    04:00 +14°C° 0 mm 4 mps 760 mmHg 65%
    05:00 +14°C° 0 mm 4 mps 760 mmHg 63%
    06:00 +14°C° 0 mm 5 mps 760 mmHg 61%
    07:00 +16°C° 0 mm 6 mps 760 mmHg 56%
    08:00 +17°C° 0 mm 7 mps 760 mmHg 51%
    09:00 +20°C° 0 mm 8 mps 760 mmHg 44%
    10:00 +21°C° 0 mm 7 mps 760 mmHg 44%
    11:00 +21°C° 0 mm 7 mps 759 mmHg 43%
    12:00 +22°C° 0 mm 7 mps 759 mmHg 42%
    13:00 +23°C° 0 mm 7 mps 759 mmHg 44%
    14:00 +23°C° 0 mm 7 mps 758 mmHg 46%
    15:00 +23°C° 0 mm 7 mps 758 mmHg 49%
    16:00 +22°C° 0.1 mm 6 mps 758 mmHg 60%
    17:00 +21°C° 0.1 mm 5 mps 758 mmHg 71%
    18:00 +19°C° 0.1 mm 4 mps 757 mmHg 82%
    19:00 +18°C° 0.2 mm 4 mps 757 mmHg 86%
    20:00 +17°C° 0.2 mm 4 mps 757 mmHg 90%
    21:00 +16°C° 0.2 mm 3 mps 757 mmHg 95%
    22:00 +16°C° 0.4 mm 3 mps 757 mmHg 95%
    23:00 +15°C° 0.4 mm 4 mps 757 mmHg 95%

    Tomorrow, 23 May, Thursday

    Time Temperature Precipitation Wind Pressure Humidity
    00:00 +15°C° 0.4 mm 4 mps 757 mmHg 95%
    01:00 +14°C° 0.3 mm 4 mps 756 mmHg 96%
    02:00 +14°C° 0.3 mm 4 mps 756 mmHg 96%
    03:00 +14°C° 0.3 mm 3 mps 756 mmHg 97%
    04:00 +14°C° 0 mm 4 mps 756 mmHg 95%
    05:00 +15°C° 0 mm 4 mps 756 mmHg 93%
    06:00 +15°C° 0 mm 4 mps 756 mmHg 92%
    07:00 +17°C° 0.2 mm 5 mps 755 mmHg 82%
    08:00 +19°C° 0.2 mm 6 mps 755 mmHg 72%
    09:00 +21°C° 0.2 mm 6 mps 755 mmHg 62%
    10:00 +22°C° 0.2 mm 7 mps 755 mmHg 59%
    11:00 +22°C° 0.2 mm 7 mps 755 mmHg 57%
    12:00 +23°C° 0.2 mm 7 mps 755 mmHg 55%
    13:00 +23°C° 0.7 mm 7 mps 755 mmHg 55%
    14:00 +23°C° 0.7 mm 8 mps 755 mmHg 55%
    15:00 +23°C° 0.7 mm 8 mps 755 mmHg 55%
    16:00 +23°C° 0.3 mm 7 mps 755 mmHg 58%
    17:00 +22°C° 0.3 mm 6 mps 755 mmHg 61%
    18:00 +21°C° 0.3 mm 5 mps 754 mmHg 64%
    19:00 +20°C° 0.1 mm 5 mps 755 mmHg 70%
    20:00 +19°C° 0.1 mm 4 mps 755 mmHg 75%
    21:00 +17°C° 0.1 mm 4 mps 755 mmHg 80%
    22:00 +17°C° 0 mm 4 mps 755 mmHg 81%
    23:00 +15°C° 0 mm 4 mps 755 mmHg 82%

    Day after tomorrow, 24 May, Friday

    Time Temperature Precipitation Wind Pressure Humidity
    00:00 +15°C° 0 mm 5 mps 755 mmHg 83%
    01:00 +15°C° 0 mm 5 mps 755 mmHg 84%
    02:00 +15°C° 0 mm 5 mps 755 mmHg 84%
    03:00 +14°C° 0 mm 5 mps 755 mmHg 85%
    04:00 +15°C° 0 mm 5 mps 755 mmHg 85%
    05:00 +15°C° 0 mm 5 mps 755 mmHg 84%
    06:00 +15°C° 0 mm 5 mps 755 mmHg 84%
    07:00 +17°C° 0 mm 5 mps 755 mmHg 78%
    08:00 +20°C° 0 mm 5 mps 756 mmHg 71%
    09:00 +22°C° 0 mm 6 mps 756 mmHg 64%
    10:00 +24°C° 0.1 mm 6 mps 756 mmHg 60%
    11:00 +26°C° 0.1 mm 6 mps 756 mmHg 55%
    12:00 +27°C° 0.1 mm 6 mps 756 mmHg 51%
    13:00 +27°C° 0 mm 6 mps 756 mmHg 50%
    14:00 +27°C° 0 mm 6 mps 756 mmHg 49%
    15:00 +28°C° 0 mm 5 mps 755 mmHg 48%
    16:00 +27°C° 0 mm 5 mps 755 mmHg 51%
    17:00 +27°C° 0 mm 4 mps 755 mmHg 54%
    18:00 +26°C° 0 mm 3 mps 755 mmHg 58%
    19:00 +24°C° 0 mm 3 mps 756 mmHg 63%
    20:00 +21°C° 0 mm 2 mps 756 mmHg 67%
    21:00 +19°C° 0 mm 2 mps 756 mmHg 72%
    22:00 +20°C° 0 mm 1 mps 756 mmHg 74%
    23:00 +19°C° 0 mm 1 mps 756 mmHg 76%

    25 May, Saturday

    Time Temperature Precipitation Wind Pressure Humidity
    00:00 +16°C° 0 mm 0 mps 756 mmHg 77%
    01:00 +18°C° 0 mm 1 mps 756 mmHg 79%
    02:00 +18°C° 0 mm 1 mps 756 mmHg 80%
    03:00 +18°C° 0 mm 1 mps 755 mmHg 82%
    04:00 +18°C° 0 mm 1 mps 755 mmHg 82%
    05:00 +18°C° 0 mm 2 mps 755 mmHg 82%
    06:00 +19°C° 0 mm 2 mps 755 mmHg 81%
    07:00 +20°C° 0 mm 2 mps 755 mmHg 75%
    08:00 +22°C° 0 mm 3 mps 755 mmHg 69%
    09:00 +25°C° 0 mm 3 mps 755 mmHg 63%
    10:00 +25°C° 1 mm 3 mps 755 mmHg 64%
    11:00 +25°C° 1 mm 3 mps 755 mmHg 64%
    12:00 +25°C° 1 mm 3 mps 755 mmHg 65%
    13:00 +22°C° 4.4 mm 4 mps 755 mmHg 74%
    14:00 +20°C° 4.4 mm 4 mps 755 mmHg 82%
    15:00 +19°C° 4.4 mm 4 mps 754 mmHg 91%
    16:00 +19°C° 2.4 mm 4 mps 754 mmHg 90%
    17:00 +19°C° 2.4 mm 4 mps 754 mmHg 89%
    18:00 +19°C° 2.4 mm 3 mps 753 mmHg 88%
    19:00 +19°C° 0.5 mm 3 mps 753 mmHg 90%
    20:00 +18°C° 0.5 mm 2 mps 754 mmHg 93%
    21:00 +18°C° 0.5 mm 1 mps 754 mmHg 95%
    22:00 +17°C° 0 mm 2 mps 754 mmHg 95%
    23:00 +17°C° 0 mm 2 mps 754 mmHg 96%

    26 May, Sunday

    Time Temperature Precipitation Wind Pressure Humidity
    00:00 +16°C° 0 mm 2 mps 754 mmHg 96%
    01:00 +16°C° 0 mm 3 mps 754 mmHg 95%
    02:00 +15°C° 0 mm 4 mps 754 mmHg 95%
    03:00 +15°C° 0 mm 5 mps 754 mmHg 94%
    04:00 +15°C° 0 mm 5 mps 755 mmHg 92%
    05:00 +15°C° 0 mm 5 mps 755 mmHg 91%
    06:00 +15°C° 0 mm 5 mps 755 mmHg 89%
    07:00 +17°C° 0 mm 5 mps 755 mmHg 84%
    08:00 +20°C° 0 mm 5 mps 756 mmHg 79%
    09:00 +22°C° 0 mm 5 mps 756 mmHg 74%
    10:00 +23°C° 0.3 mm 6 mps 756 mmHg 70%
    11:00 +24°C° 0.3 mm 6 mps 756 mmHg 65%
    12:00 +24°C° 0.3 mm 6 mps 756 mmHg 61%
    13:00 +26°C° 0.3 mm 6 mps 756 mmHg 60%
    14:00 +26°C° 0.3 mm 7 mps 755 mmHg 59%
    15:00 +26°C° 0.3 mm 7 mps 755 mmHg 58%
    16:00 +26°C° 0.2 mm 6 mps 755 mmHg 61%
    17:00 +25°C° 0.2 mm 5 mps 755 mmHg 64%
    18:00 +25°C° 0.2 mm 5 mps 756 mmHg 67%
    19:00 +22°C° 0 mm 4 mps 756 mmHg 72%
    20:00 +20°C° 0 mm 4 mps 756 mmHg 78%
    21:00 +19°C° 0 mm 4 mps 756 mmHg 84%
    22:00 +19°C° 0 mm 4 mps 757 mmHg 85%
    23:00 +17°C° 0 mm 5 mps 757 mmHg 87%

    27 May, Monday

    Time Temperature Precipitation Wind Pressure Humidity
    00:00 +17°C° 0 mm 5 mps 757 mmHg 88%
    01:00 +17°C° 0 mm 5 mps 757 mmHg 90%
    02:00 +16°C° 0 mm 5 mps 757 mmHg 91%
    03:00 +16°C° 0 mm 5 mps 757 mmHg 93%
    04:00 +16°C° 0 mm 5 mps 758 mmHg 93%
    05:00 +17°C° 0 mm 4 mps 758 mmHg 93%
    06:00 +18°C° 0 mm 4 mps 758 mmHg 93%
    07:00 +19°C° 0 mm 4 mps 759 mmHg 85%
    08:00 +21°C° 0 mm 3 mps 759 mmHg 78%
    09:00 +24°C° 0 mm 3 mps 759 mmHg 70%
    10:00 +25°C° 0 mm 4 mps 759 mmHg 64%
    11:00 +26°C° 0 mm 4 mps 760 mmHg 59%
    12:00 +28°C° 0 mm 4 mps 760 mmHg 53%
    13:00 +28°C° 0 mm 4 mps 760 mmHg 51%
    14:00 +28°C° 0 mm 4 mps 760 mmHg 50%
    15:00 +28°C° 0 mm 4 mps 760 mmHg 48%
    16:00 +28°C° 0 mm 4 mps 760 mmHg 52%
    17:00 +28°C° 0 mm 3 mps 760 mmHg 56%
    18:00 +27°C° 0 mm 3 mps 760 mmHg 60%
    19:00 +25°C° 0 mm 3 mps 760 mmHg 65%
    20:00 +22°C° 0 mm 3 mps 761 mmHg 69%
    21:00 +20°C° 0 mm 3 mps 761 mmHg 73%
    22:00 +19°C° 0 mm 3 mps 761 mmHg 76%
    23:00 +19°C° 0 mm 2 mps 761 mmHg 78%
    Show more